| time (UTC) | temp F | wind direction | speed knots | gust knots | rain 1hr in | rain 24hr in | rain mn in | humidity % | barometer mb |
| 20260903044004 | 41 | 246 | 0.0 | 0.0 | 0.00 | 0.37 | 0.03 | 84 | 993.6 |
| 20260903043504 | 40 | 246 | 0.0 | 0.0 | 0.00 | 0.37 | 0.03 | 84 | 993.7 |
| 20260903042504 | 41 | 246 | 0.0 | 0.0 | 0.00 | 0.37 | 0.03 | 84 | 993.6 |
| 20260903042004 | 41 | 246 | 0.0 | 0.0 | 0.00 | 0.37 | 0.03 | 84 | 993.6 |
| 20260903041504 | 40 | 246 | 0.0 | 0.0 | 0.00 | 0.37 | 0.03 | 85 | 993.7 |
| 20260903041004 | 40 | 246 | 0.0 | 0.0 | 0.00 | 0.37 | 0.03 | 86 | 993.7 |
| 20260903040004 | 41 | 246 | 0.0 | 0.0 | 0.00 | 0.37 | 0.03 | 86 | 993.7 |
| 20260903035004 | 41 | 246 | 0.0 | 0.0 | 0.00 | 0.37 | 0.03 | 86 | 993.6 |
| 20260903034504 | 41 | 246 | 0.0 | 0.0 | 0.00 | 0.37 | 0.03 | 85 | 993.5 |
| 20260903034004 | 41 | 246 | 0.0 | 0.0 | 0.00 | 0.37 | 0.03 | 85 | 993.6 |
| 20260903033504 | 42 | 246 | 0.0 | 0.0 | 0.00 | 0.37 | 0.03 | 85 | 993.6 |
| 20260903032004 | 42 | 246 | 0.0 | 0.0 | 0.00 | 0.37 | 0.03 | 85 | 993.8 |
| 20260903031504 | 42 | 246 | 0.0 | 0.0 | 0.00 | 0.37 | 0.03 | 85 | 993.8 |
| 20260903030504 | 42 | 246 | 0.0 | 0.0 | 0.00 | 0.37 | 0.03 | 84 | 994.0 |
| 20260903025504 | 42 | 246 | 0.0 | 0.0 | 0.00 | 0.37 | 0.03 | 85 | 994.0 |
| 20260903025004 | 42 | 246 | 0.0 | 0.0 | 0.00 | 0.37 | 0.03 | 86 | 994.1 |
| 20260903024504 | 42 | 246 | 0.0 | 0.0 | 0.00 | 0.37 | 0.03 | 86 | 994.1 |
| 20260903023504 | 42 | 246 | 0.0 | 0.0 | 0.00 | 0.37 | 0.03 | 87 | 994.2 |
| 20260903023004 | 42 | 246 | 0.0 | 0.0 | 0.00 | 0.37 | 0.03 | 87 | 994.2 |
| 20260903022504 | 42 | 246 | 0.0 | 0.0 | 0.00 | 0.37 | 0.03 | 87 | 994.2 |
| 20260903021504 | 43 | 246 | 0.0 | 0.0 | 0.00 | 0.37 | 0.03 | 87 | 994.2 |
| 20260903021004 | 43 | 246 | 0.0 | 0.0 | 0.00 | 0.37 | 0.03 | 87 | 994.2 |
| 20260903020504 | 44 | 246 | 0.0 | 0.0 | 0.00 | 0.37 | 0.03 | 87 | 994.2 |
| 20260903015504 | 44 | 246 | 0.0 | 0.0 | 0.00 | 0.37 | 0.03 | 86 | 994.1 |
| 20260903015004 | 45 | 246 | 0.0 | 0.0 | 0.00 | 0.37 | 0.03 | 86 | 994.2 |
| 20260903014505 | 45 | 246 | 0.0 | 0.0 | 0.00 | 0.37 | 0.03 | 86 | 994.2 |
| 20260903014004 | 45 | 246 | 0.0 | 0.0 | 0.00 | 0.37 | 0.03 | 86 | 994.1 |
| 20260903013504 | 45 | 246 | 0.0 | 0.0 | 0.00 | 0.37 | 0.03 | 86 | 994.1 |
| 20260903013004 | 46 | 246 | 0.0 | 0.0 | 0.00 | 0.37 | 0.03 | 86 | 994.1 |
| 20260903012504 | 46 | 246 | 0.0 | 0.0 | 0.00 | 0.37 | 0.03 | 85 | 994.1 |
| 20260903010505 | 47 | 246 | 0.0 | 0.0 | 0.00 | 0.37 | 0.03 | 83 | 994.0 |
| 20260903010004 | 48 | 246 | 0.0 | 0.0 | 0.00 | 0.37 | 0.03 | 83 | 994.0 |
| 20260903005005 | 48 | 246 | 0.0 | 0.0 | 0.00 | 0.37 | 0.03 | 82 | 994.1 |
| 20260903004504 | 48 | 246 | 0.0 | 0.0 | 0.00 | 0.38 | 0.03 | 82 | 994.1 |
| 20260903003504 | 48 | 246 | 0.0 | 0.0 | 0.00 | 0.38 | 0.03 | 81 | 994.1 |
| 20260903003004 | 48 | 246 | 0.0 | 0.0 | 0.00 | 0.38 | 0.03 | 81 | 994.1 |
| 20260903002504 | 48 | 246 | 0.9 | 2.6 | 0.00 | 0.38 | 0.03 | 81 | 994.0 |
| 20260903002004 | 47 | 247 | 0.0 | 0.0 | 0.00 | 0.38 | 0.03 | 83 | 994.0 |
| 20260903001504 | 46 | 247 | 0.0 | 0.0 | 0.00 | 0.38 | 0.03 | 84 | 993.9 |
| 20260903000504 | 46 | 247 | 0.0 | 0.0 | 0.00 | 0.38 | 0.03 | 86 | 994.0 |
| 20260903000004 | 46 | 247 | 0.0 | 0.0 | 0.00 | 0.38 | 0.03 | 87 | 994.0 |
| 20260902235504 | 46 | 247 | 0.0 | 0.0 | 0.00 | 0.38 | 0.03 | 87 | 993.9 |
| 20260902235005 | 46 | 247 | 0.0 | 0.0 | 0.00 | 0.38 | 0.03 | 86 | 993.9 |
| 20260902234504 | 46 | 247 | 0.0 | 0.0 | 0.00 | 0.38 | 0.03 | 86 | 993.8 |
| 20260902234004 | 46 | 247 | 0.0 | 0.0 | 0.00 | 0.38 | 0.03 | 87 | 993.8 |
| 20260902233505 | 47 | 247 | 0.0 | 0.0 | 0.01 | 0.38 | 0.03 | 88 | 993.8 |
| 20260902233004 | 47 | 247 | 0.0 | 0.0 | 0.01 | 0.38 | 0.03 | 87 | 993.8 |
| 20260902232504 | 48 | 247 | 0.0 | 0.0 | 0.01 | 0.38 | 0.03 | 87 | 993.8 |
| 20260902232004 | 48 | 247 | 0.0 | 0.0 | 0.02 | 0.38 | 0.03 | 87 | 993.8 |
| 20260902230504 | 50 | 247 | 0.0 | 0.0 | 0.03 | 0.38 | 0.03 | 86 | 993.9 |
| 20260902230004 | 50 | 247 | 0.0 | 0.0 | 0.03 | 0.38 | 0.03 | 84 | 994.0 |
| 20260902225504 | 50 | 247 | 0.0 | 0.0 | 0.03 | 0.38 | 0.03 | 84 | 994.1 |
| 20260902225004 | 50 | 247 | 0.0 | 0.0 | 0.04 | 0.38 | 0.03 | 83 | 994.3 |
| 20260902224504 | 51 | 247 | 0.0 | 0.0 | 0.06 | 0.38 | 0.03 | 83 | 994.3 |
| 20260902224004 | 50 | 247 | 0.0 | 1.7 | 0.11 | 0.38 | 0.03 | 83 | 994.4 |
| 20260902223504 | 50 | 248 | 0.0 | 0.0 | 0.14 | 0.37 | 0.02 | 83 | 994.6 |
| 20260902222005 | 51 | 248 | 0.0 | 0.0 | 0.17 | 0.36 | 0.01 | 83 | 994.7 |
| 20260902221504 | 51 | 248 | 0.0 | 0.0 | 0.17 | 0.36 | 0.01 | 83 | 994.8 |
| 20260902221004 | 50 | 248 | 0.0 | 0.0 | 0.16 | 0.35 | 0.00 | 83 | 994.9 |
| 20260902220504 | 51 | 248 | 0.0 | 0.0 | 0.16 | 0.35 | 0.00 | 83 | 995.1 |
| 20260902215005 | 51 | 248 | 0.0 | 0.0 | 0.16 | 0.35 | 0.35 | 83 | 994.8 |
| 20260902214504 | 50 | 248 | 0.0 | 0.0 | 0.14 | 0.33 | 0.33 | 83 | 995.0 |
| 20260902214004 | 50 | 248 | 0.0 | 0.0 | 0.09 | 0.28 | 0.28 | 84 | 995.1 |
| 20260902213004 | 50 | 248 | 0.0 | 0.0 | 0.01 | 0.20 | 0.20 | 84 | 995.1 |
| 20260902212503 | 50 | 248 | 0.0 | 0.0 | 0.00 | 0.19 | 0.19 | 85 | 995.0 |
| 20260902212004 | 50 | 248 | 0.0 | 0.0 | 0.00 | 0.19 | 0.19 | 85 | 994.8 |
| 20260902211504 | 50 | 248 | 0.0 | 0.0 | 0.00 | 0.19 | 0.19 | 84 | 994.8 |
| 20260902211004 | 50 | 248 | 0.0 | 0.0 | 0.00 | 0.19 | 0.19 | 84 | 994.8 |
| 20260902210504 | 50 | 248 | 0.0 | 0.0 | 0.00 | 0.19 | 0.19 | 84 | 994.9 |
| 20260902205504 | 50 | 248 | 0.0 | 0.0 | 0.00 | 0.19 | 0.19 | 85 | 994.9 |
| 20260902204504 | 50 | 248 | 0.0 | 0.0 | 0.00 | 0.19 | 0.19 | 86 | 995.0 |
| 20260902204004 | 50 | 248 | 0.0 | 0.0 | 0.00 | 0.19 | 0.19 | 86 | 995.1 |
| 20260902203004 | 50 | 248 | 0.0 | 0.0 | 0.04 | 0.19 | 0.19 | 86 | 995.1 |
| 20260902202504 | 50 | 248 | 0.0 | 0.0 | 0.11 | 0.19 | 0.19 | 86 | 995.1 |
| 20260902202004 | 50 | 248 | 0.0 | 0.0 | 0.12 | 0.19 | 0.19 | 86 | 995.2 |
| 20260902201004 | 51 | 248 | 0.0 | 0.0 | 0.12 | 0.19 | 0.19 | 86 | 995.2 |
| 20260902200504 | 51 | 248 | 0.0 | 0.0 | 0.12 | 0.19 | 0.19 | 86 | 995.2 |
| 20260902200004 | 51 | 248 | 0.0 | 0.0 | 0.12 | 0.19 | 0.19 | 86 | 995.2 |
| 20260902195504 | 51 | 248 | 0.0 | 0.0 | 0.12 | 0.19 | 0.19 | 86 | 995.3 |
| 20260902194504 | 51 | 248 | 0.0 | 0.0 | 0.12 | 0.19 | 0.19 | 86 | 995.3 |
| 20260902194004 | 51 | 248 | 0.0 | 0.0 | 0.12 | 0.19 | 0.19 | 85 | 995.3 |
| 20260902193504 | 51 | 248 | 0.0 | 2.6 | 0.12 | 0.19 | 0.19 | 85 | 995.3 |
| 20260902192504 | 52 | 220 | 0.0 | 0.9 | 0.01 | 0.08 | 0.08 | 83 | 995.6 |
| 20260902192004 | 52 | 220 | 0.9 | 2.6 | 0.00 | 0.07 | 0.07 | 82 | 995.8 |
| 20260902191504 | 52 | 217 | 0.0 | 0.0 | 0.00 | 0.07 | 0.07 | 81 | 995.7 |
| 20260902190504 | 51 | 217 | 0.0 | 0.0 | 0.00 | 0.07 | 0.07 | 82 | 995.9 |
| 20260902190004 | 50 | 123 | 0.0 | 0.0 | 0.00 | 0.07 | 0.07 | 85 | 996.0 |
| 20260902185004 | 49 | 111 | 0.0 | 0.0 | 0.00 | 0.07 | 0.07 | 86 | 995.7 |
| 20260902184004 | 50 | 111 | 0.0 | 0.0 | 0.00 | 0.07 | 0.07 | 87 | 995.7 |
| 20260902183504 | 50 | 111 | 0.0 | 0.0 | 0.00 | 0.07 | 0.07 | 87 | 995.6 |
| 20260902182504 | 50 | 111 | 0.0 | 0.0 | 0.00 | 0.07 | 0.07 | 87 | 995.6 |
| 20260902182005 | 50 | 111 | 0.0 | 0.0 | 0.00 | 0.07 | 0.07 | 87 | 995.5 |
| 20260902181504 | 50 | 111 | 0.0 | 0.0 | 0.00 | 0.07 | 0.07 | 88 | 995.5 |
| 20260902180504 | 50 | 111 | 0.0 | 0.0 | 0.00 | 0.07 | 0.07 | 88 | 995.7 |
| 20260902180006 | 51 | 111 | 0.0 | 0.0 | 0.00 | 0.07 | 0.07 | 89 | 995.7 |
| 20260902175004 | 51 | 111 | 0.0 | 0.0 | 0.00 | 0.07 | 0.07 | 88 | 995.7 |
| 20260902174504 | 52 | 111 | 0.0 | 0.0 | 0.00 | 0.07 | 0.07 | 88 | 995.7 |
| 20260902174004 | 52 | 111 | 0.0 | 0.0 | 0.00 | 0.07 | 0.07 | 88 | 995.7 |
| 20260902173504 | 52 | 111 | 0.0 | 0.0 | 0.00 | 0.07 | 0.07 | 88 | 995.8 |
| 20260902172504 | 53 | 111 | 0.0 | 0.0 | 0.00 | 0.07 | 0.07 | 88 | 995.9 |
| 20260902171505 | 54 | 111 | 0.0 | 0.0 | 0.00 | 0.07 | 0.07 | 88 | 995.8 |
| 20260902171004 | 54 | 111 | 0.0 | 0.0 | 0.00 | 0.07 | 0.07 | 88 | 995.9 |
| 20260902170504 | 54 | 111 | 0.0 | 0.0 | 0.00 | 0.07 | 0.07 | 88 | 995.9 |
| 20260902170004 | 54 | 111 | 0.0 | 0.0 | 0.00 | 0.07 | 0.07 | 88 | 995.9 |
| 20260902165504 | 55 | 111 | 0.0 | 0.0 | 0.00 | 0.07 | 0.07 | 88 | 995.9 |
| 20260902165004 | 55 | 111 | 0.0 | 0.0 | 0.00 | 0.07 | 0.07 | 88 | 996.0 |
| 20260902164504 | 55 | 111 | 0.0 | 0.0 | 0.00 | 0.07 | 0.07 | 88 | 996.0 |
| 20260902164004 | 55 | 111 | 0.0 | 0.0 | 0.00 | 0.07 | 0.07 | 89 | 996.0 |
| 20260902163504 | 56 | 111 | 0.0 | 0.0 | 0.00 | 0.07 | 0.07 | 88 | 996.0 |
| 20260902163004 | 56 | 111 | 0.0 | 0.0 | 0.00 | 0.07 | 0.07 | 88 | 996.0 |
| 20260902162504 | 56 | 111 | 0.0 | 0.0 | 0.00 | 0.07 | 0.07 | 88 | 996.0 |
| 20260902161504 | 56 | 112 | 0.0 | 2.6 | 0.00 | 0.07 | 0.07 | 88 | 996.1 |
| 20260902160504 | 57 | 112 | 0.0 | 0.0 | 0.00 | 0.07 | 0.07 | 88 | 996.1 |
| 20260902160005 | 57 | 112 | 0.0 | 0.0 | 0.00 | 0.07 | 0.07 | 88 | 996.1 |
| 20260902155504 | 57 | 112 | 0.0 | 2.6 | 0.00 | 0.07 | 0.07 | 88 | 996.2 |
| 20260902155005 | 57 | 112 | 1.7 | 4.3 | 0.00 | 0.07 | 0.07 | 88 | 996.2 |
| 20260902154504 | 57 | 138 | 0.0 | 2.6 | 0.00 | 0.07 | 0.07 | 88 | 996.3 |
| 20260902153504 | 57 | 152 | 0.9 | 2.6 | 0.00 | 0.07 | 0.07 | 88 | 996.4 |
| 20260902153004 | 57 | 188 | 0.0 | 0.0 | 0.00 | 0.07 | 0.07 | 88 | 996.5 |
| 20260902151504 | 57 | 200 | 0.0 | 1.7 | 0.01 | 0.07 | 0.07 | 88 | 996.7 |
| 20260902151004 | 57 | 211 | 0.9 | 2.6 | 0.02 | 0.07 | 0.07 | 87 | 996.6 |
| 20260902150504 | 57 | 215 | 0.0 | 0.0 | 0.03 | 0.07 | 0.07 | 87 | 996.8 |
| 20260902150004 | 57 | 215 | 0.0 | 1.7 | 0.04 | 0.07 | 0.07 | 87 | 996.8 |
| 20260902145504 | 56 | 216 | 0.0 | 0.0 | 0.04 | 0.07 | 0.07 | 88 | 996.8 |
| 20260902145004 | 56 | 216 | 0.0 | 0.0 | 0.04 | 0.07 | 0.07 | 88 | 996.8 |
| 20260902144504 | 56 | 216 | 0.0 | 0.0 | 0.04 | 0.07 | 0.07 | 88 | 996.8 |
| 20260902144004 | 56 | 216 | 0.0 | 0.0 | 0.04 | 0.07 | 0.07 | 88 | 996.8 |
| 20260902143504 | 56 | 216 | 0.0 | 1.7 | 0.04 | 0.07 | 0.07 | 87 | 996.8 |
| 20260902143004 | 56 | 216 | 0.9 | 1.7 | 0.04 | 0.07 | 0.07 | 87 | 996.9 |
| 20260902142004 | 55 | 218 | 0.0 | 0.0 | 0.04 | 0.06 | 0.06 | 88 | 997.1 |
| 20260902141504 | 55 | 218 | 0.0 | 0.0 | 0.04 | 0.06 | 0.06 | 88 | 997.2 |
| 20260902141004 | 55 | 218 | 0.0 | 0.0 | 0.03 | 0.05 | 0.05 | 88 | 997.2 |
| 20260902140504 | 55 | 218 | 0.0 | 0.0 | 0.02 | 0.04 | 0.04 | 88 | 997.3 |
| 20260902140004 | 56 | 218 | 0.0 | 0.0 | 0.02 | 0.03 | 0.03 | 88 | 997.6 |
| 20260902135504 | 56 | 218 | 0.0 | 0.9 | 0.02 | 0.03 | 0.03 | 87 | 997.7 |
| 20260902135004 | 56 | 218 | 0.0 | 0.0 | 0.02 | 0.03 | 0.03 | 87 | 997.7 |
| 20260902134504 | 56 | 218 | 0.0 | 0.0 | 0.02 | 0.03 | 0.03 | 87 | 997.6 |
| 20260902134004 | 57 | 218 | 0.0 | 0.0 | 0.02 | 0.03 | 0.03 | 86 | 997.5 |
| 20260902133504 | 57 | 218 | 0.0 | 0.0 | 0.02 | 0.03 | 0.03 | 86 | 997.5 |
| 20260902133004 | 57 | 218 | 0.0 | 0.0 | 0.02 | 0.03 | 0.03 | 86 | 997.6 |
| 20260902132504 | 57 | 218 | 0.0 | 0.0 | 0.01 | 0.02 | 0.02 | 84 | 997.6 |
| 20260902132004 | 58 | 218 | 0.0 | 0.0 | 0.01 | 0.02 | 0.02 | 83 | 997.7 |
| 20260902131504 | 58 | 218 | 0.0 | 0.0 | 0.01 | 0.02 | 0.02 | 80 | 997.7 |
| 20260902130504 | 60 | 217 | 0.0 | 4.3 | 0.01 | 0.02 | 0.02 | 76 | 997.7 |
| 20260902130004 | 61 | 198 | 2.6 | 7.0 | 0.00 | 0.01 | 0.01 | 72 | 997.5 |
| 20260902125504 | 62 | 132 | 0.9 | 2.6 | 0.00 | 0.01 | 0.01 | 70 | 997.5 |
| 20260902125004 | 63 | 127 | 0.0 | 0.9 | 0.00 | 0.01 | 0.01 | 68 | 997.4 |
| 20260902124504 | 64 | 127 | 0.0 | 5.2 | 0.00 | 0.01 | 0.01 | 65 | 997.2 |
| 20260902124004 | 65 | 116 | 0.9 | 5.2 | 0.00 | 0.01 | 0.01 | 61 | 997.2 |
| 20260902123004 | 66 | 98 | 1.7 | 4.3 | 0.00 | 0.01 | 0.01 | 62 | 997.2 |
| 20260902122504 | 67 | 81 | 1.7 | 4.3 | 0.00 | 0.01 | 0.01 | 61 | 997.2 |
| 20260902121504 | 67 | 105 | 1.7 | 5.2 | 0.00 | 0.01 | 0.01 | 62 | 997.4 |
| 20260902121004 | 66 | 101 | 1.7 | 6.1 | 0.00 | 0.01 | 0.01 | 64 | 997.4 |
| 20260902120504 | 66 | 102 | 2.6 | 5.2 | 0.00 | 0.01 | 0.01 | 62 | 997.4 |
| 20260902120004 | 66 | 83 | 1.7 | 4.3 | 0.00 | 0.01 | 0.01 | 62 | 997.4 |
| 20260902115005 | 66 | 100 | 3.5 | 7.0 | 0.00 | 0.01 | 0.01 | 64 | 997.5 |
| 20260902114504 | 65 | 113 | 1.7 | 5.2 | 0.00 | 0.01 | 0.01 | 66 | 997.7 |
| 20260902114004 | 64 | 130 | 1.7 | 4.3 | 0.00 | 0.01 | 0.01 | 66 | 997.7 |
| 20260902113504 | 63 | 104 | 0.0 | 0.0 | 0.00 | 0.01 | 0.01 | 67 | 997.7 |
| 20260902113004 | 63 | 99 | 0.0 | 0.0 | 0.00 | 0.01 | 0.01 | 66 | 997.8 |
| 20260902112504 | 63 | 98 | 0.0 | 0.0 | 0.00 | 0.01 | 0.01 | 66 | 997.8 |
| 20260902112004 | 63 | 98 | 0.0 | 0.0 | 0.00 | 0.01 | 0.01 | 66 | 997.8 |
| 20260902111504 | 63 | 98 | 0.0 | 0.9 | 0.00 | 0.01 | 0.01 | 65 | 997.9 |
| 20260902111004 | 63 | 101 | 0.0 | 0.0 | 0.00 | 0.01 | 0.01 | 63 | 997.8 |
| 20260902110504 | 63 | 101 | 0.0 | 0.0 | 0.00 | 0.01 | 0.01 | 64 | 997.9 |
| 20260902110007 | 63 | 99 | 0.0 | 0.0 | 0.00 | 0.01 | 0.01 | 65 | 997.9 |
| 20260902105506 | 63 | 99 | 0.0 | 0.0 | 0.00 | 0.01 | 0.01 | 65 | 997.9 |
| 20260902105004 | 63 | 99 | 0.0 | 0.0 | 0.00 | 0.01 | 0.01 | 66 | 997.9 |
| 20260902104004 | 62 | 97 | 0.0 | 0.0 | 0.00 | 0.01 | 0.01 | 67 | 998.0 |
| 20260902103504 | 62 | 83 | 0.0 | 0.0 | 0.00 | 0.01 | 0.01 | 65 | 998.0 |
| 20260902103004 | 61 | 87 | 0.0 | 0.0 | 0.00 | 0.01 | 0.01 | 69 | 998.1 |
| 20260902102504 | 60 | 88 | 0.0 | 0.0 | 0.00 | 0.01 | 0.01 | 68 | 998.2 |
| 20260902102004 | 60 | 90 | 0.0 | 0.0 | 0.00 | 0.01 | 0.01 | 69 | 998.2 |
| 20260902101504 | 60 | 55 | 0.0 | 0.0 | 0.00 | 0.01 | 0.01 | 66 | 998.2 |
| 20260902101004 | 60 | 55 | 0.0 | 0.0 | 0.00 | 0.01 | 0.01 | 63 | 998.3 |
| 20260902100505 | 61 | 55 | 0.0 | 0.0 | 0.00 | 0.01 | 0.01 | 65 | 998.4 |
| 20260902100004 | 60 | 55 | 0.0 | 0.0 | 0.00 | 0.01 | 0.01 | 65 | 998.4 |
| 20260902095504 | 60 | 55 | 0.0 | 0.0 | 0.00 | 0.01 | 0.01 | 66 | 998.3 |
| 20260902094504 | 59 | 55 | 0.0 | 0.0 | 0.00 | 0.01 | 0.01 | 69 | 998.5 |
| 20260902093504 | 59 | 54 | 0.0 | 0.0 | 0.00 | 0.01 | 0.01 | 70 | 998.6 |
| 20260902093004 | 58 | 48 | 0.0 | 0.0 | 0.00 | 0.01 | 0.01 | 71 | 998.6 |
| 20260902092509 | 58 | 38 | 0.0 | 0.0 | 0.00 | 0.01 | 0.01 | 72 | 998.6 |
| 20260902092009 | 57 | 38 | 0.0 | 0.0 | 0.00 | 0.01 | 0.01 | 73 | 998.6 |
| 20260902091504 | 57 | 37 | 0.0 | 0.0 | 0.00 | 0.01 | 0.01 | 73 | 998.6 |
| 20260902090005 | 56 | 10 | 0.0 | 0.0 | 0.00 | 0.01 | 0.01 | 77 | 998.7 |
| 20260902085504 | 55 | 5 | 0.0 | 0.0 | 0.00 | 0.01 | 0.01 | 77 | 998.7 |
| 20260902085004 | 55 | 5 | 0.0 | 0.0 | 0.00 | 0.01 | 0.01 | 76 | 998.8 |
| 20260902084504 | 55 | 5 | 0.0 | 0.0 | 0.00 | 0.01 | 0.01 | 75 | 998.8 |
| 20260902084004 | 55 | 5 | 0.0 | 0.0 | 0.00 | 0.01 | 0.01 | 77 | 998.7 |
| 20260902083504 | 55 | 5 | 0.0 | 0.0 | 0.00 | 0.01 | 0.01 | 79 | 998.8 |
| 20260902083005 | 54 | 5 | 0.0 | 0.0 | 0.00 | 0.01 | 0.01 | 82 | 998.8 |
| 20260902082504 | 54 | 5 | 0.0 | 0.0 | 0.00 | 0.01 | 0.01 | 80 | 998.8 |
| 20260902082004 | 53 | 328 | 0.0 | 0.0 | 0.00 | 0.01 | 0.01 | 82 | 998.8 |
| 20260902081504 | 53 | 312 | 0.0 | 0.0 | 0.00 | 0.01 | 0.01 | 84 | 998.8 |
| 20260902081004 | 52 | 312 | 0.0 | 0.0 | 0.00 | 0.01 | 0.01 | 85 | 998.8 |
| 20260902080004 | 51 | 298 | 0.0 | 0.0 | 0.00 | 0.01 | 0.01 | 86 | 999.0 |
| 20260902075504 | 51 | 298 | 0.0 | 0.0 | 0.00 | 0.01 | 0.01 | 87 | 999.0 |
| 20260902074504 | 50 | 298 | 0.0 | 0.0 | 0.00 | 0.01 | 0.01 | 88 | 999.0 |
| 20260902073504 | 49 | 298 | 0.0 | 0.0 | 0.00 | 0.01 | 0.01 | 89 | 999.0 |
| 20260902073004 | 49 | 298 | 0.0 | 0.0 | 0.00 | 0.01 | 0.01 | 89 | 999.0 |
| 20260902072504 | 49 | 298 | 0.0 | 0.0 | 0.00 | 0.01 | 0.01 | 86 | 999.1 |
| 20260902072004 | 48 | 298 | 0.0 | 0.0 | 0.00 | 0.01 | 0.01 | 83 | 999.0 |
| 20260902071504 | 48 | 298 | 0.0 | 0.0 | 0.00 | 0.01 | 0.01 | 80 | 999.1 |
| 20260902071004 | 47 | 298 | 0.0 | 0.0 | 0.00 | 0.01 | 0.01 | 79 | 999.1 |
| 20260902070504 | 47 | 298 | 0.0 | 0.0 | 0.00 | 0.01 | 0.01 | 78 | 999.0 |
| 20260902070006 | 46 | 298 | 0.0 | 0.0 | 0.00 | 0.01 | 0.01 | 78 | 999.0 |
| 20260902065504 | 46 | 298 | 0.0 | 0.0 | 0.00 | 0.02 | 0.01 | 78 | 999.0 |
| 20260902064004 | 46 | 298 | 0.0 | 0.0 | 0.00 | 0.03 | 0.01 | 78 | 998.9 |
| 20260902063505 | 45 | 298 | 0.0 | 0.0 | 0.00 | 0.03 | 0.01 | 78 | 998.9 |
| 20260902063004 | 45 | 298 | 0.0 | 0.0 | 0.00 | 0.03 | 0.01 | 78 | 998.9 |
| 20260902062504 | 45 | 298 | 0.0 | 0.0 | 0.00 | 0.03 | 0.01 | 78 | 998.9 |
| 20260902062004 | 45 | 298 | 0.0 | 0.0 | 0.00 | 0.03 | 0.01 | 78 | 999.0 |
| 20260902061004 | 44 | 298 | 0.0 | 0.0 | 0.00 | 0.03 | 0.01 | 78 | 999.0 |
| 20260902060504 | 44 | 298 | 0.0 | 0.0 | 0.00 | 0.03 | 0.01 | 79 | 999.0 |
| 20260902060004 | 43 | 298 | 0.0 | 0.0 | 0.00 | 0.03 | 0.01 | 79 | 999.0 |
| 20260902055507 | 42 | 298 | 0.0 | 0.0 | 0.00 | 0.03 | 0.01 | 79 | 998.9 |
| 20260902055004 | 41 | 298 | 0.0 | 0.0 | 0.00 | 0.03 | 0.01 | 79 | 999.0 |
| 20260902054504 | 40 | 298 | 0.0 | 0.0 | 0.00 | 0.03 | 0.01 | 80 | 999.0 |
| 20260902054004 | 39 | 298 | 0.0 | 0.0 | 0.00 | 0.03 | 0.01 | 80 | 999.0 |
| 20260902053505 | 39 | 298 | 0.0 | 0.0 | 0.00 | 0.03 | 0.01 | 81 | 999.0 |
| 20260902053004 | 38 | 298 | 0.0 | 0.0 | 0.00 | 0.03 | 0.01 | 81 | 999.0 |
| 20260902052503 | 38 | 298 | 0.0 | 0.0 | 0.00 | 0.03 | 0.01 | 81 | 998.9 |
| 20260902052004 | 37 | 298 | 0.0 | 0.0 | 0.00 | 0.03 | 0.01 | 82 | 999.0 |
| 20260902051504 | 37 | 298 | 0.0 | 0.0 | 0.00 | 0.03 | 0.01 | 83 | 999.0 |
| 20260902050504 | 36 | 298 | 0.0 | 0.0 | 0.00 | 0.03 | 0.01 | 83 | 999.0 |
| 20260902050007 | 36 | 298 | 0.0 | 0.0 | 0.00 | 0.03 | 0.01 | 84 | 999.0 |
| 20260902045505 | 36 | 298 | 0.0 | 0.0 | 0.00 | 0.03 | 0.01 | 84 | 999.1 |
| 20260902045004 | 36 | 298 | 0.0 | 0.0 | 0.00 | 0.03 | 0.01 | 85 | 999.0 |
| 20260902044504 | 35 | 298 | 0.0 | 0.0 | 0.00 | 0.03 | 0.01 | 85 | 999.1 |